Location: Easthampton
(42.2676°N, 72.6690°W)
Time: 21:48:42
(UTC+00:00)

DUCHIFAT 1 - Visible Passes

Search period start: 22 March 2023 00:00
Search period end: 01 April 2023 00:00
Orbit: 571 x 585 km, 98.0° (Epoch: 21 March)

Date Brightness Start Highest point End Pass type
(mag) Time Alt. Az. Time Alt. Az. Time Alt. Az.
22 Mar ? 07:10:23 10° NE 07:10:46 12° NE 07:10:46 12° NE visible
22 Mar ? 08:44:58 10° N 08:47:04 25° NNW 08:47:04 25° NNW visible
23 Mar ? 07:14:35 10° NE 07:15:20 13° NE 07:15:20 13° NE visible
23 Mar ? 08:49:24 10° N 08:51:38 24° NNW 08:51:38 24° NNW visible
24 Mar ? 07:18:48 10° NE 07:19:51 15° NE 07:19:51 15° NE visible
24 Mar ? 08:53:50 10° N 08:56:09 24° NW 08:56:09 24° NW visible
25 Mar ? 07:23:00 10° NE 07:24:23 17° NE 07:24:23 17° NE visible
25 Mar ? 08:58:15 10° NNW 09:00:41 23° NW 09:00:41 23° NW visible
26 Mar ? 07:27:13 10° NE 07:28:52 20° NE 07:28:52 20° NE visible
26 Mar ? 09:02:39 10° NNW 09:05:10 22° NW 09:05:10 22° NW visible
27 Mar ? 07:31:24 10° NNE 07:33:20 22° NE 07:33:20 22° NE visible
27 Mar ? 09:07:03 10° NNW 09:09:38 21° NW 09:09:38 21° NW visible
28 Mar ? 07:35:36 10° NNE 07:37:47 26° NE 07:37:47 26° NE visible
28 Mar ? 09:11:27 10° NNW 09:14:05 19° WNW 09:14:05 19° WNW visible
29 Mar ? 07:39:46 10° NNE 07:42:13 29° NE 07:42:13 29° NE visible
29 Mar ? 09:15:50 10° NNW 09:18:31 17° WNW 09:18:31 17° WNW visible
30 Mar ? 07:43:56 10° NNE 07:46:38 34° NE 07:46:38 34° NE visible
30 Mar ? 09:20:14 10° NNW 09:22:44 16° WNW 09:22:55 16° WNW visible
31 Mar ? 07:48:05 10° NNE 07:51:01 38° NE 07:51:01 38° NE visible
31 Mar ? 09:24:38 10° NNW 09:26:53 15° WNW 09:27:19 14° WNW visible
